HAKGR LSZB-LIRJ

Flight info

Callsign HAKGR
Flight time 1h 13m
Altitude 23000
Route MONIN Z119 SOSON N850 ODINA DCT UPDIN DCT ELB
Aircraft B350/L-SBGR/C

Departure

Time 2026-04-20 12:28
Airport Bern Airport (LSZB)

Arrival

Time 2026-04-20 13:41
Airport Marina di Campo Airport (LIRJ)
Time Latitude Longitude Altitude Speed Heading
2026-04-20 12:10 46.91312 7.50023 1676 ft 0 kts 144°
2026-04-20 12:24 46.91310 7.50026 1682 ft 2 kts 144°
2026-04-20 12:24 46.91264 7.50040 1714 ft 12 kts 145°
2026-04-20 12:25 46.91180 7.50145 1734 ft 17 kts 139°
2026-04-20 12:25 46.91073 7.50281 1730 ft 21 kts 140°
2026-04-20 12:25 46.90981 7.50385 1736 ft 11 kts 137°
2026-04-20 12:25 46.90975 7.50394 1734 ft 0 kts 137°
2026-04-20 12:26 46.90975 7.50395 1734 ft 1 kts 137°
2026-04-20 12:26 46.90941 7.50413 1732 ft 11 kts 192°
2026-04-20 12:26 46.90905 7.50336 1734 ft 8 kts 291°
2026-04-20 12:26 46.90910 7.50328 1728 ft 0 kts 322°
2026-04-20 12:27 46.91022 7.50192 1733 ft 55 kts 320°
2026-04-20 12:27 46.91484 7.49625 1736 ft 110 kts 319°
2026-04-20 12:27 46.92113 7.48856 2179 ft 126 kts 321°
2026-04-20 12:28 46.92800 7.47988 2632 ft 140 kts 323°
2026-04-20 12:28 46.93593 7.47017 3060 ft 156 kts 320°
2026-04-20 12:28 46.94463 7.45966 3610 ft 169 kts 322°
2026-04-20 12:28 46.95400 7.44854 4083 ft 176 kts 324°
2026-04-20 12:29 46.96351 7.43690 4568 ft 182 kts 322°
2026-04-20 12:29 46.97360 7.42522 5002 ft 187 kts 324°
2026-04-20 12:29 46.98482 7.41589 5437 ft 187 kts 346°
2026-04-20 12:29 46.99794 7.41619 5858 ft 195 kts 14°
2026-04-20 12:30 47.00986 7.42567 6313 ft 200 kts 43°
2026-04-20 12:30 47.01734 7.44307 6696 ft 208 kts 73°
2026-04-20 12:30 47.01762 7.46424 7007 ft 216 kts 109°
2026-04-20 12:30 47.00900 7.48198 7311 ft 216 kts 149°
2026-04-20 12:31 46.99527 7.48877 7844 ft 203 kts 173°
2026-04-20 12:31 46.98208 7.49399 8490 ft 201 kts 156°
2026-04-20 12:31 46.96994 7.50488 8870 ft 211 kts 153°
2026-04-20 12:31 46.95653 7.51549 8979 ft 228 kts 155°
2026-04-20 12:32 46.94200 7.52645 8985 ft 240 kts 157°
2026-04-20 12:32 46.92687 7.53723 9133 ft 241 kts 156°
2026-04-20 12:32 46.91212 7.54846 9459 ft 237 kts 155°
2026-04-20 12:32 46.89773 7.55973 9856 ft 232 kts 155°
2026-04-20 12:33 46.88353 7.57071 10222 ft 231 kts 156°
2026-04-20 12:33 46.86953 7.58214 10572 ft 232 kts 146°
2026-04-20 12:33 46.85901 7.60011 10944 ft 235 kts 126°
2026-04-20 12:33 46.85001 7.62028 11307 ft 235 kts 125°
2026-04-20 12:34 46.84112 7.64047 11692 ft 239 kts 126°
2026-04-20 12:34 46.83189 7.66093 12074 ft 243 kts 126°
2026-04-20 12:34 46.82255 7.68167 12457 ft 246 kts 126°
2026-04-20 12:34 46.81327 7.70239 12846 ft 248 kts 126°
2026-04-20 12:35 46.80376 7.72357 13241 ft 250 kts 126°
2026-04-20 12:35 46.79415 7.74494 13642 ft 253 kts 126°
2026-04-20 12:35 46.78444 7.76654 14017 ft 256 kts 126°
2026-04-20 12:35 46.77463 7.78836 14380 ft 258 kts 126°
2026-04-20 12:36 46.76478 7.81023 14743 ft 257 kts 126°
2026-04-20 12:36 46.75499 7.83198 15106 ft 255 kts 126°
2026-04-20 12:36 46.74528 7.85352 15464 ft 253 kts 127°
2026-04-20 12:36 46.73567 7.87491 15836 ft 252 kts 126°
2026-04-20 12:37 46.72601 7.89622 16217 ft 252 kts 126°
2026-04-20 12:37 46.71636 7.91755 16592 ft 250 kts 126°
2026-04-20 12:37 46.70680 7.93875 16979 ft 251 kts 126°
2026-04-20 12:37 46.69716 7.96005 17382 ft 253 kts 127°
2026-04-20 12:38 46.68752 7.98159 17760 ft 254 kts 122°
2026-04-20 12:38 46.68205 8.00594 18166 ft 253 kts 99°
2026-04-20 12:38 46.67894 8.03103 18529 ft 256 kts 99°
2026-04-20 12:38 46.67574 8.05666 18889 ft 258 kts 99°
2026-04-20 12:39 46.66916 8.10891 19618 ft 266 kts 99°
2026-04-20 12:39 46.66578 8.13559 20004 ft 270 kts 99°
2026-04-20 12:39 46.66232 8.16281 20375 ft 274 kts 99°
2026-04-20 12:40 46.65884 8.19019 20749 ft 275 kts 98°
2026-04-20 12:40 46.65535 8.21749 21143 ft 276 kts 99°
2026-04-20 12:40 46.65183 8.24520 21532 ft 280 kts 99°
2026-04-20 12:40 46.64828 8.27327 21936 ft 284 kts 99°
2026-04-20 12:41 46.64461 8.30162 22337 ft 285 kts 100°
2026-04-20 12:41 46.64099 8.33002 22744 ft 288 kts 99°
2026-04-20 12:41 46.63722 8.35890 23016 ft 296 kts 99°
2026-04-20 12:41 46.63341 8.38863 23014 ft 308 kts 99°
2026-04-20 12:42 46.62941 8.41968 23024 ft 316 kts 99°
2026-04-20 12:42 46.62530 8.45132 23014 ft 320 kts 99°
2026-04-20 12:42 46.62114 8.48337 23009 ft 324 kts 99°
2026-04-20 12:42 46.61690 8.51585 23008 ft 328 kts 100°
2026-04-20 12:43 46.60956 8.54703 23005 ft 328 kts 121°
2026-04-20 12:43 46.59590 8.57324 22999 ft 325 kts 141°
2026-04-20 12:43 46.57764 8.59173 22999 ft 317 kts 162°
2026-04-20 12:43 46.55726 8.60105 22998 ft 298 kts 181°
2026-04-20 12:44 46.53704 8.60421 22986 ft 289 kts 184°
2026-04-20 12:44 46.52386 8.60604 22988 ft 286 kts 184°
2026-04-20 12:44 46.50385 8.60878 22985 ft 285 kts 184°
2026-04-20 12:44 46.48442 8.61152 22961 ft 282 kts 184°
2026-04-20 12:45 46.46496 8.61435 22962 ft 280 kts 184°
2026-04-20 12:45 46.44564 8.61705 22957 ft 277 kts 185°
2026-04-20 12:45 46.42645 8.61973 22964 ft 277 kts 185°
2026-04-20 12:45 46.40719 8.62243 22961 ft 279 kts 185°
2026-04-20 12:46 46.38782 8.62517 22950 ft 280 kts 184°
2026-04-20 12:46 46.36839 8.62792 22954 ft 280 kts 184°
2026-04-20 12:46 46.34894 8.63065 22955 ft 281 kts 184°
2026-04-20 12:46 46.32937 8.63342 22955 ft 282 kts 184°
2026-04-20 12:47 46.30986 8.63616 22945 ft 282 kts 184°
2026-04-20 12:47 46.29040 8.63890 22952 ft 280 kts 184°
2026-04-20 12:47 46.27133 8.64156 22942 ft 277 kts 184°
2026-04-20 12:47 46.25171 8.64436 22934 ft 278 kts 184°
2026-04-20 12:48 46.23291 8.64699 22932 ft 276 kts 184°
2026-04-20 12:48 46.21383 8.64969 22941 ft 272 kts 184°
2026-04-20 12:48 46.19474 8.65230 22924 ft 279 kts 184°
2026-04-20 12:48 46.17542 8.65497 22959 ft 280 kts 183°
2026-04-20 12:49 46.15604 8.65766 22932 ft 280 kts 184°
2026-04-20 12:49 46.13658 8.66047 22933 ft 281 kts 184°
2026-04-20 12:49 46.11720 8.66323 22939 ft 281 kts 184°
2026-04-20 12:49 46.09778 8.66783 22933 ft 287 kts 171°
2026-04-20 12:50 46.07882 8.67691 22927 ft 286 kts 169°
2026-04-20 12:50 46.06012 8.68616 22940 ft 283 kts 170°
2026-04-20 12:50 46.04141 8.69509 22928 ft 283 kts 170°
2026-04-20 12:50 46.02286 8.70384 22935 ft 280 kts 170°
2026-04-20 12:51 46.00432 8.71263 22934 ft 281 kts 170°
2026-04-20 12:51 45.98567 8.72150 22937 ft 282 kts 170°
2026-04-20 12:51 45.96702 8.73037 22945 ft 283 kts 170°
2026-04-20 12:51 45.94834 8.73925 22942 ft 283 kts 170°
2026-04-20 12:52 45.92987 8.74802 22941 ft 284 kts 170°
2026-04-20 12:52 45.91113 8.75691 22944 ft 283 kts 170°
2026-04-20 12:52 45.89238 8.76579 22943 ft 284 kts 170°
2026-04-20 12:52 45.87361 8.77467 22942 ft 284 kts 170°
2026-04-20 12:53 45.85482 8.78359 22943 ft 284 kts 170°
2026-04-20 12:53 45.83608 8.79245 22943 ft 284 kts 170°
2026-04-20 12:53 45.81731 8.80130 22933 ft 283 kts 169°
2026-04-20 12:53 45.79857 8.81015 22933 ft 283 kts 169°
2026-04-20 12:54 45.77981 8.81901 22930 ft 284 kts 169°
2026-04-20 12:54 45.76103 8.82786 22927 ft 284 kts 169°
2026-04-20 12:54 45.74225 8.83672 22926 ft 284 kts 169°
2026-04-20 12:54 45.72349 8.84555 22927 ft 283 kts 169°
2026-04-20 12:55 45.70478 8.85435 22930 ft 283 kts 169°
2026-04-20 12:55 45.68630 8.86304 22933 ft 283 kts 169°
2026-04-20 12:55 45.66763 8.87182 22932 ft 283 kts 169°
2026-04-20 12:55 45.64890 8.88061 22933 ft 283 kts 169°
2026-04-20 12:56 45.63015 8.88941 22932 ft 283 kts 169°
2026-04-20 12:56 45.61147 8.89817 22934 ft 282 kts 169°
2026-04-20 12:56 45.59277 8.90693 22934 ft 282 kts 170°
2026-04-20 12:56 45.57410 8.91567 22936 ft 282 kts 170°
2026-04-20 12:57 45.55544 8.92440 22936 ft 282 kts 170°
2026-04-20 12:57 45.53679 8.93313 22937 ft 282 kts 170°
2026-04-20 12:57 45.51813 8.94184 22937 ft 282 kts 170°
2026-04-20 12:57 45.49947 8.95055 22951 ft 282 kts 170°
2026-04-20 12:58 45.48081 8.95926 22953 ft 282 kts 170°
2026-04-20 12:58 45.46235 8.96787 22956 ft 282 kts 170°
2026-04-20 12:58 45.44368 8.97657 22956 ft 282 kts 170°
2026-04-20 12:58 45.42501 8.98526 22956 ft 283 kts 170°
2026-04-20 12:59 45.40634 8.99395 22954 ft 282 kts 170°
2026-04-20 12:59 45.38768 9.00263 22953 ft 282 kts 170°
2026-04-20 12:59 45.36905 9.01128 22957 ft 282 kts 170°
2026-04-20 12:59 45.35042 9.01993 22952 ft 282 kts 170°
2026-04-20 13:00 45.33178 9.02858 22951 ft 281 kts 170°
2026-04-20 13:00 45.31314 9.03723 22947 ft 281 kts 170°
2026-04-20 13:00 45.29450 9.04586 22945 ft 281 kts 170°
2026-04-20 13:00 45.27589 9.05448 22933 ft 281 kts 170°
2026-04-20 13:01 45.25726 9.06310 22935 ft 281 kts 170°
2026-04-20 13:01 45.23866 9.07170 22946 ft 281 kts 170°
2026-04-20 13:01 45.22004 9.08031 22947 ft 281 kts 170°
2026-04-20 13:01 45.20143 9.08891 22947 ft 281 kts 170°
2026-04-20 13:02 45.18305 9.09739 22947 ft 281 kts 170°
2026-04-20 13:02 45.16446 9.10595 22945 ft 281 kts 170°
2026-04-20 13:02 45.14584 9.11454 22946 ft 281 kts 170°
2026-04-20 13:02 45.12723 9.12311 22947 ft 281 kts 170°
2026-04-20 13:03 45.10863 9.13167 22948 ft 281 kts 170°
2026-04-20 13:03 45.09004 9.14021 22946 ft 281 kts 170°
2026-04-20 13:03 45.07144 9.14876 22946 ft 281 kts 170°
2026-04-20 13:03 45.05285 9.15730 22946 ft 281 kts 170°
2026-04-20 13:04 45.03450 9.16572 22943 ft 281 kts 170°
2026-04-20 13:04 45.01592 9.17425 22946 ft 281 kts 170°
2026-04-20 13:04 44.99736 9.18276 22932 ft 280 kts 169°
2026-04-20 13:04 44.97882 9.19125 22933 ft 280 kts 169°
2026-04-20 13:05 44.96027 9.19973 22934 ft 281 kts 169°
2026-04-20 13:05 44.94163 9.20825 22934 ft 282 kts 169°
2026-04-20 13:05 44.92297 9.21678 22939 ft 283 kts 169°
2026-04-20 13:05 44.90423 9.22535 22936 ft 283 kts 169°
2026-04-20 13:06 44.88553 9.23389 22933 ft 282 kts 169°
2026-04-20 13:06 44.86684 9.24241 22934 ft 282 kts 170°
2026-04-20 13:06 44.84838 9.25082 22939 ft 281 kts 170°
2026-04-20 13:06 44.82975 9.25931 22941 ft 282 kts 169°
2026-04-20 13:07 44.81109 9.26779 22930 ft 282 kts 169°
2026-04-20 13:07 44.79243 9.27629 22938 ft 282 kts 169°
2026-04-20 13:07 44.77377 9.28477 22942 ft 281 kts 169°
2026-04-20 13:07 44.75518 9.29322 22940 ft 281 kts 169°
2026-04-20 13:08 44.73653 9.30169 22945 ft 281 kts 169°
2026-04-20 13:08 44.71791 9.31012 22946 ft 282 kts 169°
2026-04-20 13:08 44.69921 9.31861 22945 ft 282 kts 169°
2026-04-20 13:08 44.68050 9.32709 22953 ft 282 kts 169°
2026-04-20 13:09 44.66183 9.33554 22952 ft 281 kts 169°
2026-04-20 13:09 44.64316 9.34398 22953 ft 282 kts 169°
2026-04-20 13:09 44.62447 9.35243 22955 ft 282 kts 169°
2026-04-20 13:09 44.60576 9.36089 22943 ft 282 kts 169°
2026-04-20 13:10 44.58712 9.36932 22951 ft 281 kts 169°
2026-04-20 13:10 44.56874 9.37761 22955 ft 281 kts 169°
2026-04-20 13:10 44.55011 9.38600 22956 ft 281 kts 169°
2026-04-20 13:10 44.53151 9.39437 22958 ft 281 kts 169°
2026-04-20 13:11 44.51288 9.40276 22957 ft 281 kts 169°
2026-04-20 13:11 44.49425 9.41115 22958 ft 281 kts 169°
2026-04-20 13:11 44.47563 9.41952 22956 ft 281 kts 169°
2026-04-20 13:11 44.45705 9.42788 22965 ft 281 kts 169°
2026-04-20 13:12 44.43844 9.43623 22966 ft 281 kts 169°
2026-04-20 13:12 44.41981 9.44459 22962 ft 281 kts 169°
2026-04-20 13:12 44.40121 9.45294 22965 ft 281 kts 169°
2026-04-20 13:12 44.38262 9.46127 22963 ft 281 kts 169°
2026-04-20 13:13 44.36399 9.46961 22972 ft 282 kts 169°
2026-04-20 13:13 44.34530 9.47797 22972 ft 282 kts 169°
2026-04-20 13:13 44.32658 9.48635 22975 ft 283 kts 169°
2026-04-20 13:13 44.30788 9.49471 22973 ft 282 kts 169°
2026-04-20 13:14 44.28939 9.50297 22976 ft 283 kts 169°
2026-04-20 13:14 44.27060 9.51136 22974 ft 282 kts 169°
2026-04-20 13:14 44.25193 9.51969 22974 ft 282 kts 169°
2026-04-20 13:14 44.23320 9.52803 22973 ft 282 kts 170°
2026-04-20 13:15 44.21455 9.53635 22968 ft 282 kts 169°
2026-04-20 13:15 44.19583 9.54468 22967 ft 281 kts 169°
2026-04-20 13:15 44.17721 9.55296 22968 ft 281 kts 169°
2026-04-20 13:15 44.15858 9.56124 22968 ft 281 kts 169°
2026-04-20 13:16 44.13997 9.56952 22969 ft 281 kts 169°
2026-04-20 13:16 44.12135 9.57779 22969 ft 281 kts 169°
2026-04-20 13:16 44.10301 9.58592 22969 ft 280 kts 169°
2026-04-20 13:16 44.08443 9.59416 22970 ft 280 kts 169°
2026-04-20 13:17 44.06583 9.60240 22973 ft 280 kts 169°
2026-04-20 13:17 44.04723 9.61064 22973 ft 280 kts 169°
2026-04-20 13:17 44.02865 9.61886 22974 ft 280 kts 169°
2026-04-20 13:17 44.01006 9.62708 22965 ft 280 kts 169°
2026-04-20 13:18 43.99150 9.63530 22980 ft 279 kts 169°
2026-04-20 13:18 43.97291 9.64350 22980 ft 279 kts 169°
2026-04-20 13:18 43.95440 9.65167 22979 ft 279 kts 169°
2026-04-20 13:18 43.93590 9.65983 22979 ft 279 kts 169°
2026-04-20 13:19 43.91740 9.66799 22976 ft 279 kts 169°
2026-04-20 13:19 43.89891 9.67613 22976 ft 279 kts 169°
2026-04-20 13:19 43.88043 9.68427 22975 ft 279 kts 169°
2026-04-20 13:19 43.86194 9.69240 22977 ft 279 kts 169°
2026-04-20 13:20 43.84367 9.70044 22976 ft 279 kts 169°
2026-04-20 13:20 43.82518 9.70856 22976 ft 279 kts 169°
2026-04-20 13:20 43.80670 9.71667 22969 ft 278 kts 169°
2026-04-20 13:20 43.78822 9.72479 22972 ft 278 kts 169°
2026-04-20 13:21 43.76977 9.73287 22971 ft 278 kts 169°
2026-04-20 13:21 43.75129 9.74097 22971 ft 278 kts 169°
2026-04-20 13:21 43.73283 9.74906 22971 ft 278 kts 169°
2026-04-20 13:21 43.71434 9.75715 22971 ft 278 kts 169°
2026-04-20 13:22 43.69582 9.76525 22974 ft 278 kts 169°
2026-04-20 13:22 43.67738 9.77331 22974 ft 278 kts 169°
2026-04-20 13:22 43.65886 9.78140 22974 ft 278 kts 169°
2026-04-20 13:22 43.64042 9.78946 22974 ft 278 kts 169°
2026-04-20 13:23 43.62196 9.79751 22972 ft 278 kts 169°
2026-04-20 13:23 43.60383 9.80543 22917 ft 276 kts 169°
2026-04-20 13:23 43.58530 9.81346 22580 ft 283 kts 169°
2026-04-20 13:23 43.56639 9.82167 22206 ft 286 kts 168°
2026-04-20 13:24 43.54722 9.83004 21816 ft 289 kts 168°
2026-04-20 13:24 43.52801 9.83841 21437 ft 290 kts 168°
2026-04-20 13:24 43.50867 9.84681 21059 ft 291 kts 168°
2026-04-20 13:24 43.48934 9.85521 20684 ft 291 kts 168°
2026-04-20 13:25 43.46995 9.86362 20312 ft 291 kts 168°
2026-04-20 13:25 43.45063 9.87200 19943 ft 291 kts 168°
2026-04-20 13:25 43.43132 9.88037 19580 ft 290 kts 168°
2026-04-20 13:25 43.41232 9.88861 19226 ft 290 kts 168°
2026-04-20 13:26 43.39311 9.89692 18870 ft 288 kts 168°
2026-04-20 13:26 43.37435 9.90637 18512 ft 288 kts 157°
2026-04-20 13:26 43.35680 9.91978 18147 ft 288 kts 155°
2026-04-20 13:26 43.33938 9.93347 17746 ft 288 kts 155°
2026-04-20 13:27 43.32194 9.94693 17349 ft 287 kts 155°
2026-04-20 13:27 43.30452 9.96021 16959 ft 286 kts 155°
2026-04-20 13:27 43.28712 9.97352 16573 ft 285 kts 155°
2026-04-20 13:27 43.26977 9.98683 16189 ft 284 kts 155°
2026-04-20 13:28 43.25273 9.99991 15820 ft 283 kts 155°
2026-04-20 13:28 43.23555 10.01306 15443 ft 282 kts 155°
2026-04-20 13:28 43.21840 10.02616 15081 ft 281 kts 155°
2026-04-20 13:28 43.20131 10.03923 14718 ft 280 kts 155°
2026-04-20 13:29 43.18429 10.05224 14349 ft 280 kts 154°
2026-04-20 13:29 43.16729 10.06521 13996 ft 280 kts 154°
2026-04-20 13:29 43.15025 10.07821 13628 ft 281 kts 154°
2026-04-20 13:29 43.13313 10.09126 13234 ft 282 kts 154°
2026-04-20 13:30 43.11595 10.10436 12845 ft 282 kts 154°
2026-04-20 13:30 43.09882 10.11741 12462 ft 281 kts 154°
2026-04-20 13:30 43.08173 10.13042 12080 ft 280 kts 155°
2026-04-20 13:30 43.06472 10.14335 11697 ft 279 kts 155°
2026-04-20 13:31 43.04780 10.15621 11320 ft 277 kts 155°
2026-04-20 13:31 43.03097 10.16900 10961 ft 276 kts 155°
2026-04-20 13:31 43.01427 10.18168 10597 ft 274 kts 155°
2026-04-20 13:31 42.99763 10.19430 10237 ft 273 kts 155°
2026-04-20 13:32 42.98666 10.20262 10000 ft 272 kts 155°
2026-04-20 13:32 42.96483 10.21916 9481 ft 270 kts 155°
2026-04-20 13:32 42.95376 10.22754 9218 ft 269 kts 155°
2026-04-20 13:32 42.93214 10.24390 8706 ft 267 kts 155°
2026-04-20 13:33 42.91593 10.25616 8329 ft 266 kts 155°
2026-04-20 13:33 42.90518 10.26429 8077 ft 265 kts 155°
2026-04-20 13:33 42.88906 10.27647 7704 ft 264 kts 155°
2026-04-20 13:33 42.87302 10.28858 7332 ft 262 kts 155°
2026-04-20 13:34 42.85706 10.30062 6966 ft 261 kts 155°
2026-04-20 13:34 42.84123 10.31257 6606 ft 260 kts 155°
2026-04-20 13:34 42.82544 10.32446 6240 ft 258 kts 155°
2026-04-20 13:34 42.80920 10.33359 5846 ft 248 kts 173°
2026-04-20 13:35 42.79276 10.34007 5500 ft 243 kts 160°
2026-04-20 13:35 42.77853 10.35186 5097 ft 237 kts 147°
2026-04-20 13:35 42.76585 10.36581 4635 ft 233 kts 141°
2026-04-20 13:35 42.75364 10.37978 4221 ft 226 kts 147°
2026-04-20 13:36 42.74053 10.39012 3910 ft 208 kts 158°
2026-04-20 13:36 42.72694 10.39340 3523 ft 199 kts 187°
2026-04-20 13:36 42.71438 10.38698 3172 ft 192 kts 217°
2026-04-20 13:36 42.70613 10.37324 2795 ft 185 kts 245°
2026-04-20 13:37 42.70076 10.35753 2457 ft 181 kts 248°
2026-04-20 13:37 42.69563 10.34216 2175 ft 175 kts 246°
2026-04-20 13:37 42.69049 10.32767 1984 ft 162 kts 243°
2026-04-20 13:37 42.68565 10.31444 1783 ft 152 kts 246°
2026-04-20 13:38 42.68185 10.30139 1561 ft 146 kts 249°
2026-04-20 13:38 42.67834 10.28851 1294 ft 145 kts 249°
2026-04-20 13:38 42.67862 10.27507 1030 ft 146 kts 296°
2026-04-20 13:38 42.68566 10.26632 853 ft 132 kts 338°
2026-04-20 13:39 42.69437 10.26289 884 ft 141 kts 347°
2026-04-20 13:39 42.70441 10.26001 1085 ft 150 kts 354°
2026-04-20 13:39 42.71426 10.25881 1151 ft 125 kts 354°
2026-04-20 13:39 42.72202 10.25690 1000 ft 105 kts 348°
2026-04-20 13:40 42.72898 10.25418 835 ft 103 kts 340°
2026-04-20 13:40 42.73593 10.25098 701 ft 110 kts 343°
2026-04-20 13:40 42.74349 10.24754 471 ft 117 kts 343°
2026-04-20 13:40 42.75091 10.24431 209 ft 107 kts 345°
2026-04-20 13:41 42.75759 10.24136 24 ft 95 kts 343°
2026-04-20 13:41 42.76256 10.23905 16 ft 36 kts 341°
2026-04-20 13:41 42.76343 10.23839 14 ft 8 kts 251°
2026-04-20 13:41 42.76321 10.23804 14 ft 9 kts 173°
2026-04-20 13:42 42.76294 10.23792 14 ft 1 kts 259°
2026-04-20 13:42 42.76295 10.23769 14 ft 0 kts 313°